ELECTRON KICK STAGE R/B, 66555

Orbit data source: Space-Track

ELECTRON KICK STAGE R/B, 66555 is space debris in LEO originally from a launch on Thu, 20 Nov 2025 UTC launched from the Rocket Lab Launch Complex (RLLC). Debris objects in space refer to the collection of defunct objects orbiting the Earth. Examples of debris include non-operational satellites, rocket bodies, and fragments generated from explosions, collisions, or faulty payload assembly.

Loading next visibility...
Identifier
66555, 2025-267B
Orbit
LEO
Country
Flag of USUS
Related business
Manufacturer
Rocket Lab
Mission
Spacecraft
Bus & Motor
KICK STAGE, CURIE
Mass
40 kg wet, ~40 kg dry
Launch date (UTC)
2025-11-20 (7 months ago)
Launch vehicle
Unknown
Launch site
Rocket Lab Launch Complex (RLLC)
Object type
Payload
Rocket body
Debris
Shape & HBR
Trunc Cone, 1.1 m
Radar Cross Section
0.760 m², Large (>1 m²)

Expand to show TLE details & history
Last TLE update: 21 hours ago

TLE from 21 hours ago
0 ELECTRON KICK STAGE R/B
1 66555U 25267B   26170.95955115  .00024787  00000-0  53908-3 0  9991
2 66555  42.0169  32.9925 0018210 276.3432  83.5336 15.43619111 32555
Epoch: 2026-06-19T23:01Z
TLE epoch observation values (Epoch: 2026-06-19T23:01:45.219Z)
Latitude
Longitude
139.37305°
Altitude
433.727 km
Speed
7.654 km/s
True Right ascension
02h 11m 58s
True Declination
0° 00' 00"
Sunlit
Object was in daylight at epoch
Visualization orbit readout
Latitude
Unknown
Longitude
Unknown
Altitude
Unknown
Speed
Unknown
Apparent Right ascension
Unknown
Apparent Declination
Unknown
Sunlit
N/A
Visualization observer readout
Local Sidereal Time
07:17:53
Azimuth
Unknown
Elevation
Unknown
Doppler factor
Unknown
Orbital elements
Apogee altitude
449.974 km
Perigee altitude
425.152 km
Semi-major axis
6,815.7 km
Eccentricity
0.00182
Inclination
42.0169°
RAAN
32.9925°
Arg. of periapsis
276.3432°
True anomaly
83.741°
Mean anomaly
83.5336°
Eccentric anomaly
83.63729°
Mean motion
3.85725 °/min
Orbital period
93.33 mins
BSTAR
0.00053908
Loading maneuver chart data...
Computing Atmospheric mass density...
Loading historical data...
Loading historical data...
Loading historical data...
Loading historical data...
Loading historical data...
Loading historical data...
Loading historical data...
Other satellites on launch #267 in the year 2025 (2025-11-20 UTC)

Documentation

Showing up to 5 results
|